Weather History for KPVD - January, 2013

Change the Weather History Date:

Saturday, January 26, 2013

  Actual Average Record
Temperature  
Mean Temperature 19 °F 29 °F  
Max Temperature 26 °F 38 °F 64 °F (1916)
Min Temperature 12 °F 21 °F 1 °F (1927)
Degree Days  
Heating Degree Days 46 36  
Month to date heating degree days 884 932  
Since 1 July heating degree days 2724 2959  
Cooling Degree Days 0 0  
Month to date cooling degree days 0 0  
Year to date cooling degree days 0 0  
Moisture  
Dew Point 3 °F    
Average Humidity 62    
Maximum Humidity 88    
Minimum Humidity 35    
Precipitation  
Precipitation 0.01 in 0.12 in 1.75 in (1986)
Month to date precipitation 1.12 3.25  
Year to date precipitation 1.12 3.25  
Snow  
Snow 0.00 in 0.30 in 3.10 in (1987)
Month to date snowfall 5.8 7.5  
Since 1 July snowfall 16.4 17.7  
Snow Depth 0.00 in    
Sea Level Pressure  
Sea Level Pressure 30.09 in    
Wind  
Wind Speed 9 mph (NW)    
Max Wind Speed 17 mph    
Max Gust Speed 24 mph    
Visibility 10 miles    
Events Snow    
T = Trace of Precipitation, MM = Missing Value Source: NWS Daily Summary

Daily Weather History Graph

Daily Weather History Graph

Search for Another Location

Airport or City:

Trip Planner

Search our weather history database for the weather conditions in past years. The results will help you decide how hot, cold, wet, or windy it might be!

Date:

Astronomy

Jan. 26, 2013 Rise Set
Actual Time 7:03 AM EST 4:53 PM EST
Civil Twilight 6:33 AM EST 5:23 PM EST
Nautical Twilight 5:59 AM EST 5:57 PM EST
Astronomical Twilight 5:26 AM EST 6:30 PM EST
Moon 4:46 PM EST (1/26) 6:18 AM EST (1/26)
Length of Visible Light 10h 50m
Length of Day
9h 50m
Full, 100% of the Moon is Illuminated
Jan 26
Full
Jan 26
Full
Feb 3
Last Quarter
Feb 10
New
Feb 17
First Quarter

Hourly Weather History & Observations

Time (EST) Temp. Windchill Dew Point Humidity Pressure Visibility Wind Dir Wind Speed Gust Speed Precip Events Conditions
12:51 AM 17.1 °F 7.6 °F 12.0 °F 81% 30.04 in 5.0 mi NNW 6.9 mph - 0.01 in Snow Light Snow
1:51 AM 17.1 °F 8.7 °F 12.0 °F 81% 30.03 in 7.0 mi North 5.8 mph - 0.00 in   Mostly Cloudy
2:51 AM 16.0 °F 8.8 °F 10.9 °F 81% 30.02 in 10.0 mi NW 4.6 mph - N/A   Mostly Cloudy
3:51 AM 14.0 °F 8.2 °F 10.0 °F 84% 30.01 in 10.0 mi North 3.5 mph - N/A   Scattered Clouds
4:51 AM 12.9 °F 5.2 °F 9.0 °F 84% 30.01 in 10.0 mi NNW 4.6 mph - N/A   Scattered Clouds
5:51 AM 12.9 °F 3.8 °F 8.1 °F 81% 30.03 in 10.0 mi NNW 5.8 mph - N/A   Scattered Clouds
6:51 AM 12.0 °F 2.7 °F 7.0 °F 80% 30.04 in 10.0 mi NNW 5.8 mph - N/A   Scattered Clouds
7:51 AM 14.0 °F 5.1 °F 6.1 °F 71% 30.06 in 10.0 mi NNW 5.8 mph - N/A   Scattered Clouds
8:51 AM 16.0 °F 2.9 °F 5.0 °F 62% 30.07 in 10.0 mi NNW 11.5 mph - N/A   Partly Cloudy
9:51 AM 18.0 °F 4.2 °F 3.9 °F 54% 30.08 in 10.0 mi NNW 13.8 mph - N/A   Partly Cloudy
10:51 AM 19.9 °F 7.3 °F 5.0 °F 52% 30.07 in 10.0 mi NNW 12.7 mph - N/A   Partly Cloudy
11:51 AM 23.0 °F 11.7 °F 6.1 °F 48% 30.05 in 10.0 mi North 11.5 mph 17.3 mph N/A   Partly Cloudy
12:51 PM 24.1 °F 14.4 °F 6.1 °F 46% 30.03 in 10.0 mi NW 9.2 mph - N/A   Partly Cloudy
1:51 PM 25.0 °F 14.8 °F 5.0 °F 43% 30.04 in 10.0 mi WNW 10.4 mph 18.4 mph N/A   Partly Cloudy
2:51 PM 25.0 °F 14.2 °F 3.0 °F 39% 30.06 in 10.0 mi NW 11.5 mph 19.6 mph N/A   Partly Cloudy
3:51 PM 24.1 °F 11.0 °F -0.9 °F 34% 30.08 in 10.0 mi NW 16.1 mph 24.2 mph N/A   Scattered Clouds
4:51 PM 23.0 °F 11.7 °F -2.0 °F 34% 30.11 in 10.0 mi NNW 11.5 mph 18.4 mph N/A   Scattered Clouds
5:51 PM 21.9 °F 8.7 °F -2.0 °F 35% 30.14 in 10.0 mi NW 15.0 mph 20.7 mph N/A   Scattered Clouds
6:51 PM 21.0 °F 6.6 °F -6.0 °F 30% 30.17 in 10.0 mi NW 17.3 mph 25.3 mph N/A   Mostly Cloudy
7:51 PM 19.0 °F 5.0 °F -5.1 °F 34% 30.19 in 10.0 mi NW 15.0 mph 27.6 mph N/A   Mostly Cloudy
8:51 PM 18.0 °F 5.4 °F -2.9 °F 40% 30.21 in 10.0 mi NW 11.5 mph - N/A   Scattered Clouds
9:51 PM 17.1 °F 5.0 °F -2.9 °F 41% 30.23 in 10.0 mi NW 10.4 mph - N/A   Partly Cloudy
10:51 PM 16.0 °F 6.3 °F -2.9 °F 43% 30.26 in 10.0 mi WNW 6.9 mph - N/A   Partly Cloudy
11:51 PM 15.1 °F 6.4 °F -2.9 °F 45% 30.27 in 10.0 mi WNW 5.8 mph - N/A   Clear